QPF
0.02 0.01 0.01 0.01 0.02 0.02 0.02 0.02 0.02 0.01 0.01 0.01 0.01 0.01 0.01 0.02 0.02 0.01 0.01 0.01 0.01 0.01 0.01 0.01 0.01 0.01 0.02 0.02 0.02 0.01 0.01 0.01 0.01 0.01 0.02 0.02 0.01 0.01 0.02 0.02 0.02 0.02 0.02 0.03
0.01 0.01 0.01 0.00 0.01 0.01 0.02 0.03 0.02 0.01 0.01 0.01 0.01 0.01 0.01 0.01 0.01 0.01 0.01 0.01 0.01 0.01 0.02 0.02 0.02 0.02 0.02 0.02 0.01 0.01 0.01 0.01 0.01 0.01 0.01 0.01 0.01 0.01 0.01 0.03 0.03 0.03 0.04 0.04
0.00 0.00 0.00 0.00 0.01 0.01 0.01 0.02 0.02 0.02 0.02 0.01 0.01 0.01 0.01 0.01 0.01 0.01 0.01 0.01 0.02 0.02 0.02 0.02 0.02 0.02 0.02 0.01 0.01 0.01 0.01 0.01 0.00 0.01 0.01 0.01 0.01 0.01 0.01 0.02 0.03 0.04 0.04 0.03
0.00 0.00 0.00 0.00 0.00 0.01 0.01 0.00 0.01 0.01 0.03 0.02 0.02 0.02 0.02 0.01 0.01 0.01 0.02 0.03 0.03 0.03 0.02 0.02 0.02 0.03 0.03 0.02 0.02 0.02 0.01 0.01 0.01 0.01 0.01 0.02 0.01 0.01 0.01 0.02 0.03 0.03 0.04 0.05
0.00 0.00 0.00 0.00 0.00 0.00 0.01 0.01 0.01 0.01 0.02 0.02 0.02 0.01 0.01 0.01 0.02 0.02 0.03 0.04 0.04 0.03 0.02 0.02 0.02 0.02 0.02 0.03 0.02 0.01 0.01 0.01 0.01 0.01 0.01 0.03 0.06 0.04 0.03 0.02 0.03 0.04 0.04 0.03
0.00 0.00 0.00 0.00 0.00 0.00 0.01 0.01 0.02 0.02 0.01 0.01 0.01 0.01 0.01 0.01 0.01 0.01 0.02 0.03 0.04 0.03 0.02 0.02 0.02 0.02 0.03 0.05 0.03 0.01 0.01 0.01 0.02 0.01 0.01 0.02 0.06 0.10 0.09 0.06 0.06 0.06 0.04 0.02
0.00 0.00 0.00 0.00 0.00 0.00 0.01 0.01 0.01 0.01 0.00 0.00 0.00 0.00 0.01 0.01 0.01 0.01 0.01 0.02 0.03 0.04 0.04 0.04 0.03 0.03 0.05 0.07 0.04 0.02 0.02 0.02 0.02 0.02 0.00 0.00 0.02 0.06 0.11 0.13 0.12 0.11 0.09 0.06
0.00 0.00 0.00 0.00 0.00 0.00 0.00 0.00 0.00 0.01 0.00 0.00 0.00 0.00 0.00 0.01 0.01 0.01 0.01 0.02 0.02 0.02 0.03 0.03 0.03 0.02 0.03 0.03 0.02 0.01 0.02 0.01 0.01 0.01 0.01 0.01 0.01 0.01 0.03 0.05 0.08 0.09 0.07 0.07
0.00 0.00 0.00 0.00 0.00 0.01 0.00 0.00 0.00 0.00 0.00 0.00 0.00 0.00 0.01 0.01 0.01 0.01 0.01 0.02 0.01 0.02 0.02 0.03 0.03 0.03 0.03 0.03 0.03 0.02 0.01 0.02 0.02 0.02 0.02 0.02 0.01 0.01 0.01 0.02 0.02 0.03 0.03 0.03
0.00 0.00 0.00 0.00 0.00 0.00 0.00 0.00 0.00 0.00 0.01 0.00 0.00 0.00 0.01 0.01 0.01 0.01 0.01 0.01 0.01 0.02 0.02 0.03 0.03 0.03 0.03 0.04 0.04 0.04 0.03 0.03 0.03 0.03 0.04 0.03 0.01 0.01 0.02 0.02 0.02 0.01 0.01 0.02
0.00 0.00 0.00 0.00 0.00 0.00 0.00 0.00 0.00 0.00 0.00 0.00 0.00 0.00 0.00 0.01 0.01 0.01 0.01 0.00 0.01 0.01 0.02 0.03 0.04 0.04 0.04 0.04 0.04 0.04 0.03 0.03 0.04 0.06 0.08 0.03 0.02 0.02 0.02 0.01 0.01 0.01 0.01 0.01
0.00 0.00 0.00 0.00 0.00 0.00 0.00 0.00 0.00 0.00 0.00 0.00 0.00 0.00 0.00 0.01 0.01 0.01 0.01 0.01 0.01 0.01 0.01 0.01 0.02 0.03 0.03 0.03 0.03 0.03 0.03 0.03 0.04 0.08 0.11 0.03 0.02 0.02 0.02 0.01 0.01 0.02 0.02 0.01
0.00 0.00 0.00 0.00 0.00 0.00 0.00 0.00 0.00 0.00 0.00 0.00 0.00 0.00 0.00 0.00 0.00 0.01 0.00 0.01 0.01 0.01 0.01 0.01 0.01 0.02 0.02 0.02 0.02 0.03 0.03 0.04 0.04 0.10 0.12 0.03 0.02 0.01 0.01 0.00 0.00 0.01 0.01 0.00
0.00 0.00 0.00 0.00 0.00 0.00 0.00 0.00 0.00 0.00 0.00 0.00 0.00 0.00 0.00 0.00 0.00 0.00 0.00 0.00 0.01 0.01 0.02 0.01 0.01 0.02 0.02 0.01 0.01 0.02 0.02 0.03 0.03 0.04 0.05 0.02 0.01 0.01 0.01 0.00 0.00 0.00 0.01 0.00
0.00 0.00 0.00 0.00 0.00 0.00 0.00 0.00 0.00 0.00 0.00 0.00 0.00 0.00 0.00 0.00 0.00 0.00 0.00 0.00 0.01 0.01 0.01 0.01 0.01 0.01 0.01 0.01 0.01 0.01 0.02 0.02 0.02 0.02 0.01 0.01 0.00 0.01 0.00 0.00 0.00 0.00 0.00 0.00
0.00 0.00 0.00 0.00 0.00 0.00 0.00 0.00 0.00 0.00 0.00 0.00 0.00 0.01 0.01 0.00 0.00 0.00 0.00 0.00 0.01 0.01 0.01 0.01 0.01 0.01 0.01 0.01 0.01 0.02 0.02 0.02 0.02 0.02 0.02 0.01 0.01 0.01 0.00 0.00 0.00 0.00 0.00 0.00
0.00 0.00 0.00 0.00 0.00 0.00 0.00 0.00 0.00 0.00 0.01 0.01 0.01 0.02 0.01 0.00 0.00 0.00 0.01 0.01 0.01 0.00 0.01 0.01 0.01 0.01 0.02 0.02 0.03 0.03 0.03 0.03 0.03 0.03 0.03 0.02 0.01 0.01 0.01 0.00 0.00 0.00 0.00 0.00
0.00 0.00 0.00 0.00 0.00 0.00 0.00 0.00 0.00 0.01 0.01 0.01 0.01 0.01 0.01 0.00 0.00 0.01 0.01 0.00 0.01 0.01 0.01 0.01 0.01 0.02 0.03 0.03 0.03 0.04 0.03 0.03 0.02 0.02 0.02 0.02 0.02 0.02 0.01 0.01 0.00 0.00 0.00 0.00
0.00 0.00 0.00 0.00 0.00 0.00 0.01 0.01 0.00 0.00 0.00 0.00 0.00 0.00 0.00 0.00 0.00 0.01 0.01 0.01 0.01 0.01 0.00 0.01 0.01 0.02 0.02 0.02 0.02 0.02 0.02 0.02 0.02 0.02 0.03 0.03 0.02 0.02 0.01 0.01 0.01 0.01 0.01 0.01
0.00 0.00 0.00 0.00 0.00 0.00 0.00 0.00 0.00 0.00 0.01 0.00 0.00 0.00 0.00 0.00 0.01 0.01 0.01 0.01 0.01 0.01 0.01 0.01 0.01 0.01 0.01 0.01 0.01 0.01 0.02 0.02 0.02 0.02 0.03 0.03 0.02 0.02 0.02 0.01 0.01 0.01 0.02 0.01
0.00 0.00 0.00 0.00 0.00 0.00 0.01 0.00 0.00 0.00 0.01 0.00 0.00 0.00 0.00 0.00 0.00 0.00 0.01 0.01 0.01 0.01 0.01 0.01 0.01 0.01 0.01 0.01 0.01 0.01 0.02 0.02 0.02 0.02 0.02 0.02 0.02 0.02 0.02 0.03 0.03 0.03 0.03 0.01
0.00 0.00 0.00 0.00 0.00 0.00 0.00 0.00 0.00 0.00 0.00 0.00 0.00 0.00 0.00 0.00 0.00 0.00 0.00 0.01 0.01 0.01 0.01 0.01 0.01 0.01 0.01 0.01 0.01 0.02 0.02 0.02 0.01 0.01 0.01 0.01 0.01 0.02 0.02 0.03 0.03 0.04 0.04 0.02
0.00 0.01 0.00 0.00 0.00 0.00 0.00 0.00 0.01 0.00 0.00 0.00 0.00 0.00 0.01 0.01 0.01 0.00 0.00 0.00 0.01 0.01 0.02 0.02 0.01 0.01 0.01 0.02 0.03 0.02 0.02 0.01 0.01 0.01 0.01 0.01 0.01 0.01 0.02 0.02 0.03 0.04 0.03 0.02
0.00 0.01 0.01 0.01 0.00 0.00 0.00 0.01 0.00 0.00 0.00 0.00 0.00 0.01 0.01 0.01 0.01 0.01 0.01 0.02 0.02 0.02 0.03 0.02 0.02 0.02 0.02 0.03 0.04 0.03 0.03 0.02 0.02 0.02 0.02 0.02 0.02 0.02 0.02 0.02 0.02 0.02 0.02 0.02
0.00 0.01 0.01 0.01 0.00 0.00 0.00 0.00 0.00 0.00 0.00 0.00 0.01 0.01 0.01 0.01 0.02 0.03 0.04 0.04 0.04 0.04 0.03 0.02 0.02 0.02 0.03 0.04 0.05 0.08 0.07 0.04 0.03 0.03 0.02 0.02 0.02 0.02 0.02 0.01 0.01 0.02 0.02 0.02
0.00 0.00 0.01 0.00 0.00 0.01 0.00 0.00 0.00 0.00 0.00 0.01 0.01 0.01 0.01 0.01 0.02 0.03 0.03 0.03 0.02 0.02 0.01 0.01 0.01 0.01 0.02 0.03 0.03 0.03 0.05 0.05 0.04 0.03 0.02 0.02 0.02 0.02 0.02 0.01 0.01 0.01 0.02 0.02
MSLP
1013.77 1014.53 1015.17 1015.71 1016.21 1016.73 1017.30 1017.93 1018.59 1019.23 1019.75 1020.11 1020.24 1020.14 1019.83 1019.35 1018.79 1018.22 1017.72 1017.32 1017.01 1016.79 1016.60 1016.39 1016.11 1015.74 1015.29 1014.76 1014.21 1013.67 1013.17 1012.76 1012.41 1012.12 1011.85 1011.57 1011.27 1010.91 1010.51 1010.09 1009.67 1009.30 1008.99 1008.78
1014.46 1015.22 1015.83 1016.33 1016.80 1017.31 1017.89 1018.55 1019.27 1019.97 1020.57 1020.98 1021.15 1021.07 1020.74 1020.24 1019.65 1019.05 1018.52 1018.10 1017.80 1017.58 1017.41 1017.21 1016.95 1016.60 1016.15 1015.64 1015.10 1014.58 1014.12 1013.73 1013.43 1013.17 1012.93 1012.67 1012.34 1011.95 1011.49 1010.98 1010.47 1010.00 1009.60 1009.30
1015.04 1015.81 1016.42 1016.92 1017.40 1017.93 1018.55 1019.26 1020.03 1020.77 1021.40 1021.83 1022.00 1021.89 1021.53 1020.98 1020.34 1019.71 1019.16 1018.73 1018.43 1018.23 1018.08 1017.91 1017.67 1017.33 1016.89 1016.39 1015.87 1015.37 1014.95 1014.61 1014.36 1014.16 1013.97 1013.75 1013.45 1013.05 1012.57 1012.03 1011.47 1010.94 1010.47 1010.08
1015.53 1016.30 1016.92 1017.45 1017.97 1018.56 1019.24 1020.02 1020.84 1021.62 1022.26 1022.67 1022.79 1022.63 1022.20 1021.59 1020.91 1020.23 1019.67 1019.23 1018.94 1018.76 1018.62 1018.46 1018.23 1017.90 1017.47 1016.97 1016.46 1015.99 1015.60 1015.31 1015.11 1014.97 1014.85 1014.68 1014.44 1014.09 1013.63 1013.10 1012.54 1011.99 1011.49 1011.06
1015.93 1016.69 1017.32 1017.89 1018.48 1019.14 1019.91 1020.77 1021.64 1022.45 1023.09 1023.47 1023.55 1023.31 1022.81 1022.14 1021.40 1020.69 1020.10 1019.66 1019.38 1019.20 1019.08 1018.93 1018.70 1018.36 1017.92 1017.41 1016.90 1016.43 1016.05 1015.79 1015.63 1015.54 1015.47 1015.37 1015.19 1014.90 1014.50 1014.03 1013.50 1012.98 1012.49 1012.06
1016.27 1016.98 1017.61 1018.22 1018.88 1019.63 1020.49 1021.43 1022.37 1023.21 1023.84 1024.19 1024.22 1023.93 1023.37 1022.65 1021.86 1021.13 1020.53 1020.09 1019.81 1019.63 1019.51 1019.36 1019.11 1018.76 1018.30 1017.77 1017.24 1016.75 1016.36 1016.09 1015.94 1015.87 1015.82 1015.76 1015.63 1015.40 1015.07 1014.66 1014.21 1013.74 1013.31 1012.91
1016.53 1017.19 1017.80 1018.43 1019.15 1019.98 1020.92 1021.94 1022.93 1023.81 1024.45 1024.79 1024.79 1024.47 1023.88 1023.13 1022.33 1021.59 1020.99 1020.55 1020.27 1020.11 1019.97 1019.81 1019.54 1019.17 1018.68 1018.12 1017.55 1017.02 1016.59 1016.29 1016.11 1016.01 1015.95 1015.89 1015.78 1015.59 1015.31 1014.96 1014.58 1014.19 1013.82 1013.48
1016.73 1017.31 1017.89 1018.53 1019.28 1020.17 1021.17 1022.25 1023.29 1024.19 1024.85 1025.20 1025.21 1024.89 1024.31 1023.57 1022.80 1022.08 1021.50 1021.08 1020.81 1020.63 1020.49 1020.30 1020.01 1019.61 1019.09 1018.50 1017.89 1017.33 1016.85 1016.49 1016.24 1016.08 1015.97 1015.86 1015.73 1015.53 1015.27 1014.97 1014.64 1014.31 1014.01 1013.73
1016.84 1017.35 1017.89 1018.52 1019.29 1020.20 1021.24 1022.34 1023.41 1024.33 1025.01 1025.38 1025.42 1025.14 1024.61 1023.94 1023.22 1022.57 1022.03 1021.63 1021.37 1021.19 1021.03 1020.83 1020.52 1020.09 1019.56 1018.95 1018.31 1017.71 1017.18 1016.75 1016.43 1016.19 1015.99 1015.81 1015.62 1015.38 1015.11 1014.81 1014.51 1014.22 1013.97 1013.75
1016.87 1017.33 1017.84 1018.46 1019.22 1020.13 1021.17 1022.26 1023.31 1024.23 1024.92 1025.32 1025.40 1025.19 1024.76 1024.18 1023.56 1022.98 1022.51 1022.16 1021.91 1021.73 1021.56 1021.33 1021.01 1020.57 1020.03 1019.42 1018.78 1018.17 1017.61 1017.14 1016.75 1016.42 1016.14 1015.87 1015.59 1015.29 1014.98 1014.66 1014.36 1014.09 1013.87 1013.68
1016.83 1017.29 1017.79 1018.40 1019.14 1020.02 1021.01 1022.06 1023.06 1023.94 1024.61 1025.03 1025.16 1025.03 1024.71 1024.25 1023.75 1023.28 1022.88 1022.58 1022.36 1022.18 1021.99 1021.75 1021.42 1020.99 1020.46 1019.87 1019.27 1018.67 1018.12 1017.63 1017.20 1016.82 1016.46 1016.11 1015.76 1015.39 1015.03 1014.68 1014.37 1014.10 1013.88 1013.70
1016.79 1017.27 1017.81 1018.42 1019.14 1019.97 1020.88 1021.83 1022.75 1023.55 1024.17 1024.57 1024.74 1024.69 1024.47 1024.14 1023.77 1023.41 1023.11 1022.86 1022.66 1022.48 1022.28 1022.02 1021.69 1021.27 1020.78 1020.24 1019.68 1019.14 1018.63 1018.16 1017.73 1017.33 1016.93 1016.53 1016.13 1015.72 1015.31 1014.94 1014.61 1014.33 1014.10 1013.92
1016.80 1017.37 1017.95 1018.58 1019.28 1020.04 1020.85 1021.67 1022.45 1023.13 1023.66 1024.03 1024.20 1024.21 1024.09 1023.88 1023.63 1023.39 1023.17 1022.97 1022.80 1022.61 1022.40 1022.13 1021.79 1021.39 1020.94 1020.46 1019.97 1019.51 1019.06 1018.65 1018.25 1017.86 1017.46 1017.05 1016.63 1016.20 1015.79 1015.41 1015.07 1014.79 1014.56 1014.37
1016.96 1017.63 1018.29 1018.93 1019.59 1020.27 1020.95 1021.61 1022.22 1022.75 1023.17 1023.46 1023.61 1023.66 1023.62 1023.51 1023.37 1023.23 1023.09 1022.95 1022.79 1022.61 1022.37 1022.09 1021.75 1021.36 1020.95 1020.52 1020.11 1019.71 1019.35 1019.00 1018.66 1018.31 1017.94 1017.55 1017.14 1016.73 1016.33 1015.97 1015.65 1015.38 1015.15 1014.95
1017.32 1018.09 1018.81 1019.46 1020.08 1020.65 1021.19 1021.67 1022.09 1022.45 1022.73 1022.92 1023.05 1023.10 1023.11 1023.09 1023.05 1023.00 1022.93 1022.83 1022.69 1022.50 1022.25 1021.95 1021.60 1021.22 1020.83 1020.45 1020.09 1019.77 1019.47 1019.18 1018.89 1018.59 1018.27 1017.91 1017.53 1017.16 1016.80 1016.47 1016.19 1015.95 1015.74 1015.54
1017.89 1018.74 1019.48 1020.12 1020.67 1021.12 1021.50 1021.80 1022.04 1022.22 1022.35 1022.45 1022.52 1022.58 1022.63 1022.68 1022.72 1022.74 1022.73 1022.67 1022.55 1022.36 1022.09 1021.77 1021.41 1021.02 1020.64 1020.29 1019.97 1019.68 1019.43 1019.18 1018.94 1018.67 1018.37 1018.05 1017.71 1017.37 1017.06 1016.77 1016.53 1016.33 1016.15 1015.97
1018.65 1019.49 1020.22 1020.80 1021.25 1021.58 1021.79 1021.93 1021.99 1022.01 1022.02 1022.03 1022.06 1022.12 1022.21 1022.31 1022.42 1022.51 1022.55 1022.53 1022.42 1022.23 1021.95 1021.61 1021.22 1020.83 1020.45 1020.10 1019.79 1019.52 1019.28 1019.05 1018.81 1018.55 1018.27 1017.96 1017.64 1017.33 1017.05 1016.81 1016.61 1016.45 1016.30 1016.15
1019.45 1020.25 1020.89 1021.38 1021.71 1021.90 1021.97 1021.94 1021.87 1021.77 1021.68 1021.63 1021.64 1021.71 1021.83 1021.99 1022.15 1022.30 1022.38 1022.39 1022.30 1022.11 1021.82 1021.47 1021.07 1020.67 1020.28 1019.92 1019.61 1019.34 1019.09 1018.85 1018.59 1018.31 1018.01 1017.69 1017.37 1017.06 1016.79 1016.57 1016.40 1016.27 1016.15 1016.03
1020.19 1020.86 1021.38 1021.73 1021.93 1021.98 1021.92 1021.78 1021.61 1021.43 1021.30 1021.23 1021.25 1021.34 1021.50 1021.71 1021.92 1022.11 1022.23 1022.25 1022.17 1021.98 1021.69 1021.34 1020.94 1020.53 1020.14 1019.78 1019.46 1019.17 1018.90 1018.63 1018.35 1018.03 1017.69 1017.34 1016.99 1016.66 1016.38 1016.15 1015.99 1015.87 1015.77 1015.67
1020.69 1021.21 1021.57 1021.77 1021.83 1021.77 1021.61 1021.40 1021.18 1020.99 1020.85 1020.81 1020.85 1020.99 1021.19 1021.44 1021.69 1021.90 1022.03 1022.07 1021.99 1021.81 1021.52 1021.17 1020.77 1020.37 1019.99 1019.64 1019.32 1019.03 1018.75 1018.45 1018.13 1017.78 1017.40 1017.00 1016.61 1016.24 1015.92 1015.67 1015.49 1015.36 1015.27 1015.19
1020.87 1021.21 1021.41 1021.47 1021.41 1021.26 1021.05 1020.82 1020.61 1020.44 1020.35 1020.36 1020.46 1020.64 1020.89 1021.17 1021.44 1021.65 1021.79 1021.82 1021.73 1021.54 1021.25 1020.91 1020.53 1020.15 1019.79 1019.47 1019.17 1018.89 1018.61 1018.31 1017.97 1017.60 1017.18 1016.74 1016.30 1015.89 1015.53 1015.24 1015.02 1014.87 1014.77 1014.69
1020.68 1020.87 1020.92 1020.87 1020.73 1020.54 1020.32 1020.12 1019.95 1019.85 1019.84 1019.91 1020.08 1020.31 1020.60 1020.89 1021.15 1021.36 1021.47 1021.48 1021.37 1021.16 1020.87 1020.54 1020.18 1019.83 1019.51 1019.22 1018.96 1018.71 1018.46 1018.17 1017.84 1017.46 1017.03 1016.57 1016.10 1015.65 1015.24 1014.91 1014.65 1014.46 1014.33 1014.25
1020.17 1020.23 1020.19 1020.07 1019.89 1019.71 1019.52 1019.38 1019.30 1019.29 1019.36 1019.52 1019.75 1020.03 1020.32 1020.61 1020.85 1021.02 1021.09 1021.06 1020.92 1020.69 1020.39 1020.06 1019.72 1019.40 1019.12 1018.87 1018.66 1018.46 1018.25 1018.00 1017.70 1017.33 1016.91 1016.45 1015.97 1015.49 1015.05 1014.68 1014.37 1014.14 1013.98 1013.86
1019.43 1019.43 1019.33 1019.19 1019.03 1018.89 1018.77 1018.71 1018.73 1018.81 1018.98 1019.20 1019.48 1019.78 1020.08 1020.35 1020.55 1020.67 1020.69 1020.60 1020.42 1020.15 1019.84 1019.51 1019.18 1018.89 1018.63 1018.43 1018.25 1018.10 1017.93 1017.73 1017.47 1017.15 1016.76 1016.31 1015.84 1015.36 1014.90 1014.49 1014.15 1013.87 1013.65 1013.49
1018.61 1018.58 1018.49 1018.38 1018.27 1018.19 1018.17 1018.20 1018.31 1018.48 1018.71 1018.99 1019.29 1019.59 1019.87 1020.10 1020.26 1020.32 1020.28 1020.14 1019.92 1019.62 1019.29 1018.95 1018.62 1018.33 1018.09 1017.91 1017.76 1017.64 1017.51 1017.35 1017.13 1016.85 1016.50 1016.09 1015.64 1015.17 1014.71 1014.28 1013.89 1013.57 1013.30 1013.08
1017.84 1017.82 1017.77 1017.71 1017.68 1017.69 1017.75 1017.88 1018.06 1018.29 1018.57 1018.86 1019.16 1019.45 1019.69 1019.88 1019.98 1019.99 1019.91 1019.72 1019.46 1019.14 1018.79 1018.42 1018.09 1017.79 1017.54 1017.35 1017.21 1017.09 1016.97 1016.83 1016.65 1016.41 1016.10 1015.73 1015.32 1014.87 1014.42 1013.98 1013.57 1013.19 1012.87 1012.58
Thickness
5810 5795 5784 5790 5795 5794 5788 5780 5777 5786 5800 5792 5784 5784 5789 5793 5791 5789 5788 5787 5787 5788 5791 5792 5791 5790 5787 5785 5783 5781 5779 5778 5777 5775 5772 5770 5768 5769 5769 5769 5768 5767 5766 5765
5793 5788 5802 5807 5803 5797 5790 5780 5779 5789 5799 5792 5783 5783 5791 5793 5793 5793 5791 5789 5788 5787 5788 5789 5789 5788 5786 5783 5782 5780 5778 5777 5776 5775 5773 5771 5769 5768 5768 5767 5767 5766 5765 5764
5790 5799 5813 5806 5798 5791 5787 5782 5783 5783 5790 5791 5783 5776 5784 5792 5796 5795 5794 5793 5792 5790 5788 5788 5787 5786 5785 5783 5781 5780 5778 5776 5776 5775 5773 5771 5768 5767 5765 5764 5764 5764 5763 5762
5797 5808 5808 5801 5796 5794 5781 5798 5794 5788 5774 5764 5773 5752 5775 5784 5787 5791 5792 5793 5793 5793 5792 5789 5788 5786 5785 5784 5783 5780 5777 5776 5775 5773 5771 5768 5764 5761 5761 5761 5761 5761 5761 5760
5796 5806 5804 5797 5802 5803 5794 5802 5794 5785 5773 5762 5766 5754 5765 5781 5780 5787 5793 5796 5797 5796 5794 5792 5790 5788 5787 5785 5782 5779 5776 5774 5773 5771 5769 5766 5763 5761 5760 5760 5759 5758 5758 5758
5803 5814 5813 5809 5813 5812 5805 5793 5783 5770 5760 5746 5759 5753 5757 5773 5784 5791 5797 5800 5800 5799 5796 5794 5792 5789 5786 5784 5781 5778 5775 5772 5771 5769 5767 5764 5761 5758 5757 5756 5755 5754 5754 5754
5789 5802 5813 5816 5803 5804 5795 5769 5745 5741 5733 5739 5760 5756 5762 5790 5798 5799 5800 5801 5802 5800 5796 5792 5790 5787 5784 5781 5779 5776 5773 5770 5768 5765 5764 5762 5759 5756 5754 5753 5751 5750 5749 5749
5769 5773 5802 5810 5803 5792 5786 5773 5745 5733 5730 5740 5756 5754 5776 5799 5805 5806 5805 5804 5802 5799 5796 5793 5791 5788 5785 5781 5778 5774 5771 5768 5766 5764 5761 5759 5757 5754 5753 5751 5749 5747 5746 5746
5767 5773 5805 5813 5814 5802 5782 5772 5773 5749 5743 5736 5746 5761 5782 5800 5800 5802 5801 5800 5798 5797 5796 5794 5791 5789 5785 5781 5777 5773 5769 5767 5764 5762 5759 5757 5754 5752 5750 5749 5747 5745 5744 5743
5784 5775 5794 5805 5808 5802 5795 5778 5759 5745 5732 5728 5742 5753 5762 5782 5789 5794 5795 5795 5795 5795 5794 5793 5791 5788 5785 5781 5777 5773 5770 5766 5763 5760 5757 5755 5752 5750 5748 5746 5744 5742 5741 5740
5789 5773 5780 5790 5787 5783 5781 5772 5757 5742 5741 5728 5726 5746 5785 5786 5791 5790 5792 5793 5793 5793 5792 5790 5789 5787 5783 5779 5775 5771 5768 5765 5762 5758 5755 5752 5749 5747 5745 5743 5741 5739 5738 5736
5783 5766 5759 5774 5792 5797 5789 5776 5761 5749 5740 5732 5729 5747 5794 5793 5794 5792 5791 5791 5791 5790 5789 5787 5786 5783 5780 5777 5773 5770 5767 5763 5760 5757 5753 5749 5746 5744 5742 5740 5738 5736 5734 5733
5779 5761 5745 5752 5767 5782 5779 5775 5765 5754 5739 5728 5727 5751 5789 5790 5789 5790 5789 5788 5787 5786 5785 5783 5781 5778 5776 5774 5771 5768 5764 5761 5757 5753 5749 5746 5743 5741 5738 5737 5735 5733 5731 5729
5782 5757 5749 5744 5753 5767 5770 5771 5764 5755 5737 5731 5738 5755 5773 5780 5781 5783 5784 5784 5782 5781 5780 5778 5776 5774 5772 5770 5767 5764 5761 5758 5754 5750 5746 5742 5740 5738 5736 5734 5732 5729 5727 5725
5774 5754 5756 5760 5768 5769 5769 5769 5765 5759 5753 5745 5753 5755 5768 5775 5778 5780 5781 5780 5778 5775 5774 5773 5771 5770 5768 5765 5763 5760 5757 5754 5751 5746 5743 5740 5738 5735 5732 5730 5727 5725 5723 5721
5759 5750 5751 5753 5762 5764 5762 5766 5765 5763 5761 5757 5758 5760 5774 5775 5776 5775 5775 5774 5772 5771 5769 5768 5767 5765 5763 5761 5759 5757 5754 5751 5747 5743 5739 5737 5734 5731 5728 5725 5722 5720 5717 5715
5745 5743 5736 5733 5748 5752 5742 5758 5762 5761 5763 5760 5755 5764 5768 5767 5769 5770 5770 5770 5769 5767 5765 5763 5762 5761 5759 5758 5756 5753 5751 5747 5743 5738 5735 5732 5729 5726 5723 5720 5717 5714 5711 5709
5740 5732 5722 5720 5732 5720 5745 5767 5767 5761 5761 5763 5763 5764 5764 5766 5768 5768 5768 5766 5764 5763 5761 5759 5758 5756 5754 5752 5750 5747 5744 5740 5736 5733 5730 5727 5723 5720 5717 5714 5711 5709 5706 5703
5739 5729 5714 5707 5710 5721 5745 5760 5760 5753 5751 5759 5758 5758 5759 5762 5761 5760 5764 5763 5762 5760 5758 5756 5754 5751 5748 5746 5743 5739 5735 5732 5728 5726 5723 5720 5718 5714 5711 5708 5706 5704 5700 5697
5728 5725 5713 5703 5707 5707 5736 5758 5763 5754 5738 5755 5755 5752 5753 5753 5741 5747 5758 5758 5756 5755 5752 5750 5747 5744 5741 5738 5735 5730 5726 5723 5721 5719 5716 5714 5711 5708 5705 5703 5700 5697 5693 5690
5713 5708 5704 5700 5703 5715 5742 5752 5754 5728 5732 5751 5751 5749 5748 5744 5745 5750 5752 5750 5749 5747 5745 5742 5739 5735 5732 5729 5725 5720 5717 5715 5714 5712 5709 5707 5704 5702 5699 5696 5694 5690 5686 5683
5704 5699 5695 5692 5696 5708 5741 5742 5734 5733 5743 5746 5745 5744 5742 5742 5743 5743 5743 5741 5739 5737 5735 5733 5729 5725 5722 5720 5716 5712 5708 5708 5707 5704 5701 5699 5697 5695 5693 5688 5685 5682 5678 5674
5698 5702 5699 5701 5707 5724 5732 5735 5739 5738 5737 5739 5739 5739 5737 5734 5733 5733 5732 5730 5729 5727 5725 5722 5718 5715 5712 5711 5707 5702 5701 5700 5698 5695 5692 5690 5688 5685 5683 5679 5676 5672 5669 5666
5696 5699 5696 5698 5710 5719 5725 5730 5734 5735 5735 5736 5736 5734 5731 5727 5725 5724 5722 5720 5718 5717 5715 5712 5708 5704 5702 5701 5699 5696 5694 5692 5689 5685 5683 5681 5678 5676 5673 5670 5667 5663 5660 5657
5688 5689 5688 5691 5702 5710 5718 5722 5726 5729 5730 5730 5729 5728 5725 5722 5718 5716 5713 5712 5710 5708 5706 5703 5699 5696 5695 5693 5690 5689 5687 5684 5680 5677 5674 5671 5669 5666 5663 5660 5657 5655 5652 5649
5682 5683 5682 5686 5696 5695 5703 5713 5719 5720 5721 5722 5720 5717 5717 5715 5711 5709 5706 5704 5703 5701 5698 5695 5692 5689 5687 5685 5682 5681 5679 5676 5672 5668 5665 5662 5660 5657 5654 5652 5649 5648 5645 5643